User: anonymous   Login
Location: Montreal
(45.5000°N, 73.5833°W)
Time: 19:30:46
(UTC-04:00)
Language:

OTV 5 (USA 277) - Orbit

View from above orbital plane
View from above orbital plane
View from above satellite
View from above satellite

Ground track
Ground track

The orbit data is extracted from the following two-line orbital elements,

1 42932U 17052A   18211.10702100 0.00000000  00000-0  00000-0 0    02
2 42932  54.5115 329.2363 0001000 136.1512 223.8487 15.84818621    09
Epoch (UTC): 30 July 2018 02:34:06
Eccentricity: 0.0001000
inclination: 54.5115°
perigee height: 316 km
apogee height: 317 km
right ascension of ascending node: 329.2363°
argument of perigee: 136.1512°
revolutions per day: 15.84818621
mean anomaly at epoch: 223.8487°
orbit number at epoch: 0

The dashed part of the orbit path shows where the satellite is in the earth's shadow,  

DLR